| time (UTC) | temp F | wind direction | speed knots | gust knots | rain 1hr in | rain 24hr in | rain mn in | humidity % | barometer mb |
| 20260904093502 | 77 | 4.3 | 0.0 | 0.00 | 0.00 | 0.00 | 44 | 1016.0 | |
| 20260904090502 | 77 | 4.3 | 0.0 | 0.00 | 0.00 | 0.00 | 42 | 1017.0 | |
| 20260904083502 | 75 | 230 | 4.3 | 0.0 | 0.00 | 0.00 | 0.00 | 47 | 1017.0 |
| 20260904080502 | 75 | 1.7 | 0.0 | 0.00 | 0.00 | 0.00 | 50 | 1017.0 | |
| 20260904073504 | 72 | 2.6 | 0.0 | 0.00 | 0.00 | 0.00 | 57 | 1017.0 | |
| 20260904070503 | 70 | 240 | 4.3 | 0.0 | 0.00 | 0.00 | 0.00 | 57 | 1017.0 |
| 20260904063502 | 68 | 210 | 2.6 | 0.0 | 0.00 | 0.00 | 0.00 | 60 | 1017.0 |
| 20260904060502 | 64 | 250 | 2.6 | 0.0 | 0.00 | 0.00 | 0.00 | 73 | 1017.0 |
| 20260904053503 | 63 | 220 | 2.6 | 0.0 | 0.00 | 0.00 | 0.00 | ||
| 20260904050502 | 63 | 1.7 | 0.0 | 0.00 | 0.00 | 0.00 | 77 | 1017.0 | |
| 20260904043502 | 59 | 190 | 2.6 | 0.0 | 0.00 | 0.00 | 0.00 | 82 | 1017.0 |
| 20260904040504 | 59 | 230 | 2.6 | 0.0 | 0.00 | 0.00 | 0.00 | 82 | 1017.0 |
| 20260904033502 | 59 | 260 | 2.6 | 0.0 | 0.00 | 0.00 | 0.00 | 82 | 1017.0 |
| 20260904030502 | 59 | 270 | 5.2 | 0.0 | 0.00 | 0.00 | 0.00 | 82 | 1017.0 |
| 20260904023502 | 59 | 250 | 4.3 | 0.0 | 0.00 | 0.00 | 0.00 | 82 | 1017.0 |
| 20260904020502 | 61 | 260 | 5.2 | 0.0 | 0.00 | 0.00 | 0.00 | 77 | 1017.0 |
| 20260904013502 | 61 | 210 | 4.3 | 0.0 | 0.00 | 0.00 | 0.00 | 77 | 1016.0 |
| 20260904010502 | 61 | 220 | 4.3 | 0.0 | 0.00 | 0.00 | 0.00 | 77 | 1017.0 |
| 20260904003503 | 61 | 240 | 5.2 | 0.0 | 0.00 | 0.00 | 0.00 | 77 | 1017.0 |
| 20260904000502 | 61 | 240 | 4.3 | 0.0 | 0.00 | 0.00 | 0.00 | 83 | 1017.0 |
| 20260903233502 | 61 | 280 | 4.3 | 0.0 | 0.00 | 0.00 | 0.00 | 83 | 1017.0 |
| 20260903230502 | 63 | 270 | 6.1 | 0.0 | 0.00 | 0.00 | 0.00 | 73 | 1017.0 |
| 20260903223503 | 64 | 240 | 4.3 | 0.0 | 0.00 | 0.00 | 0.00 | 68 | 1017.0 |
| 20260903220503 | 64 | 1.7 | 0.0 | 0.00 | 0.00 | 0.00 | 73 | 1017.0 | |
| 20260903213502 | 64 | 1.7 | 0.0 | 0.00 | 0.00 | 0.00 | 73 | 1017.0 | |
| 20260903210502 | 70 | 240 | 4.3 | 0.0 | 0.00 | 0.00 | 0.00 | ||
| 20260903203503 | 70 | 240 | 5.2 | 0.0 | 0.00 | 0.00 | 0.00 | 57 | 1017.0 |
| 20260903200502 | 70 | 220 | 2.6 | 0.0 | 0.00 | 0.00 | 0.00 | 57 | 1017.0 |
| 20260903193501 | 70 | 220 | 4.3 | 0.0 | 0.00 | 0.00 | 0.00 | 57 | 1017.0 |
| 20260903190502 | 68 | 230 | 4.3 | 0.0 | 0.00 | 0.00 | 0.00 | 60 | 1017.0 |
| 20260903183502 | 68 | 1.7 | 0.0 | 0.00 | 0.00 | 0.00 | 60 | 1017.0 | |
| 20260903180502 | 72 | 330 | 4.3 | 0.0 | 0.00 | 0.00 | 0.00 | 50 | 1017.0 |
| 20260903173502 | 73 | 330 | 4.3 | 0.0 | 0.00 | 0.00 | 0.00 | 47 | 1017.0 |
| 20260903170502 | 75 | 360 | 2.6 | 0.0 | 0.00 | 0.00 | 0.00 | 41 | 1017.0 |
| 20260903163502 | 75 | 360 | 5.2 | 0.0 | 0.00 | 0.00 | 0.00 | 44 | 1017.0 |
| 20260903160502 | 77 | 360 | 2.6 | 0.0 | 0.00 | 0.00 | 0.00 | 42 | 1016.0 |
| 20260903153502 | 77 | 10 | 2.6 | 0.0 | 0.00 | 0.00 | 0.00 | 42 | 1016.0 |
| 20260903150502 | 79 | 350 | 4.3 | 0.0 | 0.00 | 0.00 | 0.00 | 39 | 1016.0 |
| 20260903143502 | 79 | 340 | 2.6 | 0.0 | 0.00 | 0.00 | 0.00 | 37 | 1017.0 |
| 20260903140502 | 79 | 360 | 5.2 | 0.0 | 0.00 | 0.00 | 0.00 | 39 | 1017.0 |
| 20260903133501 | 79 | 320 | 5.2 | 0.0 | 0.00 | 0.00 | 0.00 | 37 | 1017.0 |
| 20260903130502 | 79 | 5.2 | 0.0 | 0.00 | 0.00 | 0.00 | 39 | 1017.0 | |
| 20260903123502 | 79 | 350 | 6.1 | 0.0 | 0.00 | 0.00 | 0.00 | 39 | 1017.0 |
| 20260903120502 | 79 | 330 | 7.0 | 0.0 | 0.00 | 0.00 | 0.00 | 39 | 1018.0 |
| 20260903113502 | 77 | 320 | 7.0 | 0.0 | 0.00 | 0.00 | 0.00 | 42 | 1018.0 |
| 20260903110502 | 77 | 5.2 | 0.0 | 0.00 | 0.00 | 0.00 | 44 | 1018.0 | |
| 20260903103503 | 75 | 320 | 6.1 | 0.0 | 0.00 | 0.00 | 0.00 | 47 | 1019.0 |
| 20260903100503 | 77 | 290 | 6.1 | 0.0 | 0.00 | 0.00 | 0.00 | 44 | 1019.0 |